When you browse on this site, cookies collect data to enhance your experience and personalize the content and advertising you see.
Visit our Privacy Policy to learn more. By continuing to use the site, you agree to this use of cookies and data.
  • In Spain
  • List of Countries
  • For 7 days
  • Water Temperature
  • Satellite Maps
  • Weather Map
  • Weather Widgets
  • user-avatar
    Login

    Hourly Weather Belkino

    Today, 25 June, Tuesday

    Time Temperature Precipitation Wind Pressure Humidity
    00:00 +15°C° 0 mm 2 mps 749 mmHg 73%
    01:00 +14°C° 0 mm 2 mps 749 mmHg 74%
    02:00 +14°C° 0 mm 2 mps 749 mmHg 75%
    03:00 +12°C° 0 mm 3 mps 750 mmHg 76%
    04:00 +14°C° 0 mm 2 mps 750 mmHg 76%
    05:00 +14°C° 0 mm 2 mps 750 mmHg 76%
    06:00 +15°C° 0 mm 1 mps 750 mmHg 77%
    07:00 +16°C° 0 mm 2 mps 751 mmHg 72%
    08:00 +18°C° 0 mm 2 mps 751 mmHg 67%
    09:00 +19°C° 0 mm 3 mps 751 mmHg 63%
    10:00 +20°C° 0 mm 3 mps 751 mmHg 58%
    11:00 +21°C° 0 mm 4 mps 751 mmHg 54%
    12:00 +22°C° 0 mm 4 mps 751 mmHg 49%
    13:00 +22°C° 0 mm 4 mps 751 mmHg 49%
    14:00 +22°C° 0 mm 4 mps 751 mmHg 48%
    15:00 +22°C° 0 mm 4 mps 751 mmHg 48%
    16:00 +22°C° 0 mm 3 mps 751 mmHg 53%
    17:00 +21°C° 0 mm 3 mps 751 mmHg 58%
    18:00 +21°C° 0 mm 2 mps 751 mmHg 64%
    19:00 +19°C° 0 mm 2 mps 751 mmHg 67%
    20:00 +18°C° 0 mm 1 mps 751 mmHg 70%
    21:00 +15°C° 0 mm 1 mps 751 mmHg 73%
    22:00 +15°C° 0 mm 1 mps 751 mmHg 73%
    23:00 +14°C° 0 mm 1 mps 751 mmHg 73%

    Tomorrow, 26 June, Wednesday

    Time Temperature Precipitation Wind Pressure Humidity
    00:00 +14°C° 0 mm 1 mps 750 mmHg 72%
    01:00 +13°C° 0 mm 1 mps 751 mmHg 75%
    02:00 +13°C° 0 mm 1 mps 751 mmHg 77%
    03:00 +12°C° 0 mm 1 mps 751 mmHg 80%
    04:00 +13°C° 0 mm 1 mps 751 mmHg 80%
    05:00 +14°C° 0 mm 1 mps 750 mmHg 80%
    06:00 +14°C° 0 mm 1 mps 750 mmHg 80%
    07:00 +16°C° 0 mm 2 mps 750 mmHg 75%
    08:00 +18°C° 0 mm 2 mps 750 mmHg 70%
    09:00 +19°C° 0 mm 2 mps 750 mmHg 64%
    10:00 +20°C° 0 mm 2 mps 749 mmHg 61%
    11:00 +21°C° 0 mm 3 mps 749 mmHg 58%
    12:00 +22°C° 0 mm 3 mps 749 mmHg 55%
    13:00 +22°C° 0.2 mm 3 mps 748 mmHg 59%
    14:00 +21°C° 0.2 mm 2 mps 748 mmHg 63%
    15:00 +22°C° 0.2 mm 1 mps 747 mmHg 68%
    16:00 +22°C° 0.3 mm 1 mps 747 mmHg 71%
    17:00 +21°C° 0.3 mm 1 mps 746 mmHg 74%
    18:00 +20°C° 0.3 mm 2 mps 745 mmHg 77%
    19:00 +19°C° 0.2 mm 2 mps 745 mmHg 82%
    20:00 +17°C° 0.2 mm 2 mps 745 mmHg 88%
    21:00 +14°C° 0.2 mm 3 mps 744 mmHg 93%
    22:00 +15°C° 0 mm 2 mps 744 mmHg 93%
    23:00 +15°C° 0 mm 2 mps 743 mmHg 94%

    Day after tomorrow, 27 June, Thursday

    Time Temperature Precipitation Wind Pressure Humidity
    00:00 +15°C° 0 mm 2 mps 742 mmHg 94%
    01:00 +15°C° 0 mm 2 mps 742 mmHg 94%
    02:00 +14°C° 0 mm 2 mps 741 mmHg 94%
    03:00 +14°C° 0 mm 2 mps 740 mmHg 94%
    04:00 +14°C° 1.4 mm 3 mps 739 mmHg 95%
    05:00 +14°C° 1.4 mm 3 mps 738 mmHg 96%
    06:00 +14°C° 1.4 mm 4 mps 737 mmHg 97%
    07:00 +15°C° 2.7 mm 4 mps 736 mmHg 97%
    08:00 +15°C° 2.7 mm 4 mps 736 mmHg 96%
    09:00 +15°C° 2.7 mm 5 mps 735 mmHg 95%
    10:00 +16°C° 1 mm 5 mps 734 mmHg 95%
    11:00 +17°C° 1 mm 5 mps 733 mmHg 95%
    12:00 +19°C° 1 mm 6 mps 732 mmHg 95%
    13:00 +19°C° 0.6 mm 6 mps 731 mmHg 94%
    14:00 +20°C° 0.6 mm 6 mps 731 mmHg 93%
    15:00 +20°C° 0.6 mm 6 mps 730 mmHg 92%
    16:00 +20°C° 0.4 mm 6 mps 729 mmHg 92%
    17:00 +21°C° 0.4 mm 6 mps 729 mmHg 92%
    18:00 +21°C° 0.4 mm 6 mps 728 mmHg 91%
    19:00 +20°C° 0.2 mm 6 mps 728 mmHg 92%
    20:00 +19°C° 0.2 mm 5 mps 727 mmHg 93%
    21:00 +17°C° 0.2 mm 5 mps 727 mmHg 93%
    22:00 +16°C° 0 mm 5 mps 727 mmHg 94%
    23:00 +15°C° 0 mm 5 mps 727 mmHg 94%

    28 June, Friday

    Time Temperature Precipitation Wind Pressure Humidity
    00:00 +14°C° 0 mm 5 mps 727 mmHg 94%
    01:00 +13°C° 0 mm 5 mps 727 mmHg 94%
    02:00 +13°C° 0 mm 5 mps 727 mmHg 94%
    03:00 +12°C° 0 mm 5 mps 727 mmHg 94%
    04:00 +12°C° 0 mm 5 mps 727 mmHg 93%
    05:00 +12°C° 0 mm 5 mps 727 mmHg 93%
    06:00 +11°C° 0 mm 6 mps 726 mmHg 92%
    07:00 +11°C° 0.1 mm 6 mps 726 mmHg 92%
    08:00 +11°C° 0.1 mm 6 mps 726 mmHg 91%
    09:00 +11°C° 0.1 mm 6 mps 726 mmHg 91%
    10:00 +11°C° 0.1 mm 6 mps 726 mmHg 90%
    11:00 +11°C° 0.1 mm 6 mps 725 mmHg 89%
    12:00 +13°C° 0.1 mm 6 mps 725 mmHg 88%
    13:00 +11°C° 0.3 mm 6 mps 725 mmHg 90%
    14:00 +11°C° 0.3 mm 6 mps 726 mmHg 92%
    15:00 +11°C° 0.3 mm 6 mps 726 mmHg 94%
    16:00 +11°C° 0.2 mm 6 mps 726 mmHg 94%
    17:00 +10°C° 0.2 mm 6 mps 726 mmHg 94%
    18:00 +10°C° 0.2 mm 6 mps 726 mmHg 95%
    19:00 +10°C° 0.4 mm 6 mps 726 mmHg 94%
    20:00 +10°C° 0.4 mm 6 mps 726 mmHg 94%
    21:00 +9°C° 0.4 mm 6 mps 726 mmHg 94%
    22:00 +10°C° 0.4 mm 6 mps 727 mmHg 94%
    23:00 +10°C° 0.4 mm 6 mps 727 mmHg 94%

    29 June, Saturday

    Time Temperature Precipitation Wind Pressure Humidity
    00:00 +10°C° 0.4 mm 6 mps 727 mmHg 94%
    01:00 +9°C° 0 mm 6 mps 727 mmHg 94%
    02:00 +9°C° 0 mm 6 mps 727 mmHg 93%
    03:00 +8°C° 0 mm 6 mps 727 mmHg 92%
    04:00 +8°C° 0 mm 6 mps 728 mmHg 91%
    05:00 +8°C° 0 mm 6 mps 728 mmHg 90%
    06:00 +8°C° 0 mm 7 mps 728 mmHg 89%
    07:00 +8°C° 0 mm 6 mps 728 mmHg 85%
    08:00 +9°C° 0 mm 6 mps 729 mmHg 82%
    09:00 +9°C° 0 mm 6 mps 729 mmHg 79%
    10:00 +9°C° 0 mm 6 mps 730 mmHg 80%
    11:00 +8°C° 0 mm 6 mps 730 mmHg 82%
    12:00 +8°C° 0 mm 6 mps 731 mmHg 84%
    13:00 +8°C° 0.1 mm 6 mps 731 mmHg 86%
    14:00 +7°C° 0.1 mm 6 mps 732 mmHg 88%
    15:00 +7°C° 0.1 mm 6 mps 732 mmHg 89%
    16:00 +7°C° 0.4 mm 6 mps 732 mmHg 91%
    17:00 +6°C° 0.4 mm 5 mps 733 mmHg 93%
    18:00 +6°C° 0.4 mm 5 mps 733 mmHg 95%
    19:00 +6°C° 0.6 mm 5 mps 733 mmHg 95%
    20:00 +6°C° 0.6 mm 5 mps 733 mmHg 96%
    21:00 +7°C° 0.6 mm 4 mps 733 mmHg 96%
    22:00 +7°C° 0.7 mm 5 mps 733 mmHg 96%
    23:00 +7°C° 0.7 mm 5 mps 733 mmHg 95%

    30 June, Sunday

    Time Temperature Precipitation Wind Pressure Humidity
    00:00 +7°C° 0.7 mm 6 mps 733 mmHg 94%
    01:00 +7°C° 0.2 mm 5 mps 734 mmHg 95%
    02:00 +7°C° 0.2 mm 4 mps 734 mmHg 95%
    03:00 +7°C° 0.2 mm 3 mps 734 mmHg 95%
    04:00 +7°C° 0 mm 4 mps 734 mmHg 94%
    05:00 +7°C° 0 mm 4 mps 735 mmHg 92%
    06:00 +7°C° 0 mm 4 mps 735 mmHg 91%
    07:00 +8°C° 0 mm 4 mps 735 mmHg 86%
    08:00 +10°C° 0 mm 4 mps 736 mmHg 80%
    09:00 +10°C° 0 mm 5 mps 736 mmHg 75%
    10:00 +13°C° 0 mm 5 mps 736 mmHg 68%
    11:00 +14°C° 0 mm 5 mps 737 mmHg 61%
    12:00 +16°C° 0 mm 5 mps 737 mmHg 54%
    13:00 +16°C° 0.1 mm 5 mps 737 mmHg 57%
    14:00 +17°C° 0.1 mm 4 mps 738 mmHg 60%
    15:00 +17°C° 0.1 mm 4 mps 738 mmHg 63%
    16:00 +17°C° 0.1 mm 4 mps 738 mmHg 64%
    17:00 +17°C° 0.1 mm 3 mps 738 mmHg 64%
    18:00 +17°C° 0.1 mm 3 mps 739 mmHg 65%
    19:00 +14°C° 0 mm 3 mps 739 mmHg 68%
    20:00 +14°C° 0 mm 2 mps 739 mmHg 71%
    21:00 +12°C° 0 mm 2 mps 740 mmHg 74%
    22:00 +12°C° 0 mm 2 mps 740 mmHg 78%
    23:00 +10°C° 0 mm 2 mps 740 mmHg 81%
    Show more